TimeCDT,TemperatureF,Dew PointF,Humidity,Sea Level PressureIn,VisibilityMPH,Wind Direction,Wind SpeedMPH,Gust SpeedMPH,PrecipitationIn,Events,Conditions,WindDirDegrees,DateUTC
12:53 AM,48.0,43.0,83,30.16,10.0,NNW,4.6,-,N/A,,Clear,340,2011-10-29 05:53:00
1:53 AM,46.9,43.0,86,30.17,10.0,NNW,3.5,-,N/A,,Clear,330,2011-10-29 06:53:00
2:53 AM,45.0,42.1,90,30.18,10.0,NNW,3.5,-,N/A,,Clear,330,2011-10-29 07:53:00
3:53 AM,45.0,41.0,86,30.17,10.0,Calm,Calm,-,N/A,,Clear,0,2011-10-29 08:53:00
4:53 AM,44.1,41.0,89,30.16,10.0,NNE,3.5,-,N/A,,Clear,30,2011-10-29 09:53:00
5:53 AM,43.0,39.9,89,30.18,10.0,NNW,3.5,-,N/A,,Clear,330,2011-10-29 10:53:00
6:53 AM,42.1,39.0,89,30.20,10.0,NW,3.5,-,N/A,,Clear,320,2011-10-29 11:53:00
7:53 AM,43.0,39.9,89,30.23,10.0,Calm,Calm,-,N/A,,Clear,0,2011-10-29 12:53:00
8:53 AM,48.9,41.0,74,30.25,10.0,Variable,4.6,-,N/A,,Clear,0,2011-10-29 13:53:00
9:53 AM,53.1,39.9,61,30.26,10.0,Variable,6.9,-,N/A,,Clear,0,2011-10-29 14:53:00
10:53 AM,57.9,36.0,44,30.25,10.0,Variable,6.9,-,N/A,,Clear,0,2011-10-29 15:53:00
11:53 AM,61.0,36.0,39,30.23,10.0,NNE,8.1,16.1,N/A,,Clear,20,2011-10-29 16:53:00
12:53 PM,63.0,34.0,34,30.20,10.0,NNE,9.2,20.7,N/A,,Clear,20,2011-10-29 17:53:00
1:53 PM,66.0,34.0,30,30.15,10.0,NNE,13.8,21.9,N/A,,Clear,30,2011-10-29 18:53:00
2:53 PM,68.0,32.0,26,30.13,10.0,NE,8.1,-,N/A,,Clear,50,2011-10-29 19:53:00
3:53 PM,66.9,30.9,26,30.12,10.0,North,5.8,-,N/A,,Clear,360,2011-10-29 20:53:00
4:53 PM,66.9,32.0,27,30.12,10.0,NNE,6.9,-,N/A,,Clear,20,2011-10-29 21:53:00
5:53 PM,64.0,34.0,33,30.12,10.0,North,3.5,-,N/A,,Clear,10,2011-10-29 22:53:00
6:53 PM,55.0,39.0,55,30.13,10.0,Calm,Calm,-,N/A,,Clear,0,2011-10-29 23:53:00
7:53 PM,50.0,43.0,77,30.14,10.0,Calm,Calm,-,N/A,,Clear,0,2011-10-30 00:53:00
8:53 PM,48.0,43.0,83,30.15,10.0,Calm,Calm,-,N/A,,Clear,0,2011-10-30 01:53:00
9:53 PM,45.0,42.1,90,30.17,10.0,Calm,Calm,-,N/A,,Clear,0,2011-10-30 02:53:00
10:53 PM,44.1,41.0,89,30.17,10.0,Calm,Calm,-,N/A,,Clear,0,2011-10-30 03:53:00
11:53 PM,42.1,39.9,92,30.16,10.0,Calm,Calm,-,N/A,,Clear,0,2011-10-30 04:53:00